Weather History for Hoquiam, WA

Change the Weather History Date:

Wednesday, February 13, 2013

  Actual Average Record
Temperature  
Mean Temperature 44 °F 44 °F  
Max Temperature 48 °F 50 °F 65 °F (1996)
Min Temperature 41 °F 38 °F 25 °F (1990)
Degree Days  
Heating Degree Days 20 21  
Month to date heating degree days 283  
Cooling Degree Days 0 0  
Month to date cooling degree days 0  
Year to date cooling degree days 0  
Moisture  
Dew Point 42 °F    
Average Humidity 85    
Maximum Humidity 100    
Minimum Humidity 74    
Precipitation  
Precipitation 0.00 in 0.25 in 2.60 in (1982)
Month to date precipitation 3.60  
Year to date precipitation 13.93  
Sea Level Pressure  
Sea Level Pressure 30.45 in    
Wind  
Wind Speed 9 mph (West)    
Max Wind Speed 14 mph    
Max Gust Speed 18 mph    
Visibility 8 miles    
Events      
T = Trace of Precipitation, MM = Missing Value Source: NWS Daily Summary

Daily Weather History Graph

Daily Weather History Graph

Search for Another Location

Airport:

Trip Planner

Search our weather history database for the weather conditions in past years. The results will help you decide how hot, cold, wet, or windy it might be!

Date:

Astronomy

Feb. 13, 2013 Rise Set
Actual Time 7:22 AM PST 5:37 PM PST
Civil Twilight 6:51 AM PST 6:09 PM PST
Nautical Twilight 6:15 AM PST 6:44 PM PST
Astronomical Twilight 5:40 AM PST 7:20 PM PST
Moon 8:37 AM PST (2/13) 10:06 PM PST (2/13)
Length of Visible Light 11h 17m
Length of Day
10h 14m
Waxing Crescent, 14% of the Moon is Illuminated
Feb 13
Waxing Crescent
Feb 17
First Quarter
Feb 25
Full
Mar 4
Last Quarter
Mar 11
New

Hourly Weather History & Observations

Time (PST) Temp. Windchill Dew Point Humidity Pressure Visibility Wind Dir Wind Speed Gust Speed Precip Events Conditions
12:12 AM 46.4 °F 40.7 °F 44.6 °F 93% 30.38 in 3.0 mi West 12.7 mph - N/A   Overcast
12:23 AM 46.4 °F 40.7 °F 44.6 °F 93% 30.38 in 4.0 mi West 12.7 mph 18.4 mph N/A   Overcast
12:31 AM 46.4 °F 41.1 °F 44.6 °F 93% 30.39 in 5.0 mi West 11.5 mph - N/A   Overcast
12:42 AM 46.4 °F 41.5 °F 44.6 °F 93% 30.38 in 5.0 mi West 10.4 mph - N/A   Overcast
12:53 AM 46.0 °F 39.9 °F 44.1 °F 93% 30.40 in 4.0 mi West 13.8 mph - N/A   Overcast
12:58 AM 46.4 °F 40.7 °F 44.6 °F 93% 30.39 in 5.0 mi West 12.7 mph - N/A   Overcast
1:09 AM 46.4 °F 41.5 °F 44.6 °F 93% 30.39 in 4.0 mi West 10.4 mph - N/A   Overcast
1:53 AM 45.0 °F 40.1 °F 43.0 °F 93% 30.40 in 7.0 mi WSW 9.2 mph - N/A   Overcast
2:34 AM 46.4 °F 43.5 °F 41.0 °F 81% 30.40 in 10.0 mi West 5.8 mph - N/A   Overcast
2:53 AM 46.0 °F 44.8 °F 42.1 °F 86% 30.41 in 10.0 mi West 3.5 mph - N/A   Overcast
3:53 AM 46.0 °F 43.1 °F 39.0 °F 76% 30.41 in 10.0 mi WSW 5.8 mph - N/A   Overcast
4:53 AM 46.0 °F 43.9 °F 39.9 °F 79% 30.42 in 10.0 mi West 4.6 mph - N/A   Overcast
5:29 AM 44.6 °F 43.1 °F 41.0 °F 87% 30.41 in 10.0 mi West 3.5 mph - N/A   Overcast
5:53 AM 46.0 °F 43.1 °F 41.0 °F 83% 30.43 in 10.0 mi West 5.8 mph - N/A   Mostly Cloudy
6:53 AM 45.0 °F 43.5 °F 41.0 °F 86% 30.44 in 10.0 mi WSW 3.5 mph - N/A   Overcast
7:53 AM 45.0 °F 43.5 °F 41.0 °F 86% 30.45 in 10.0 mi West 3.5 mph - N/A   Overcast
8:53 AM 46.0 °F 42.5 °F 41.0 °F 83% 30.46 in 9.0 mi West 6.9 mph - N/A   Overcast
9:53 AM 46.9 °F - 41.0 °F 80% 30.48 in 10.0 mi WSW 9.2 mph - N/A   Overcast
10:53 AM 46.9 °F - 42.1 °F 83% 30.48 in 10.0 mi WSW 9.2 mph - N/A   Overcast
11:00 AM 46.4 °F 41.9 °F 42.8 °F 87% 30.47 in 10.0 mi SW 9.2 mph - N/A   Overcast
11:48 AM 46.4 °F 42.9 °F 42.8 °F 87% 30.47 in 10.0 mi WSW 6.9 mph - N/A   Overcast
11:53 AM 48.0 °F - 42.1 °F 80% 30.48 in 10.0 mi WSW 6.9 mph - N/A   Overcast
12:37 PM 48.2 °F - 42.8 °F 82% 30.47 in 10.0 mi WSW 10.4 mph - N/A   Overcast
12:53 PM 48.0 °F - 42.1 °F 80% 30.48 in 10.0 mi WSW 8.1 mph - N/A   Overcast
1:01 PM 48.2 °F - 42.8 °F 82% 30.46 in 10.0 mi WSW 9.2 mph - N/A   Overcast
1:25 PM 48.2 °F - 41.0 °F 76% 30.45 in 10.0 mi WSW 11.5 mph - N/A   Overcast
1:37 PM 48.2 °F - 41.0 °F 76% 30.45 in 10.0 mi WSW 8.1 mph - N/A   Overcast
1:53 PM 48.9 °F - 42.1 °F 77% 30.47 in 10.0 mi WSW 10.4 mph - N/A   Overcast
2:14 PM 48.2 °F - 42.8 °F 82% 30.45 in 10.0 mi West 9.2 mph - N/A   Overcast
2:53 PM 48.0 °F - 39.9 °F 74% 30.47 in 10.0 mi West 5.8 mph - N/A   Overcast
3:03 PM 48.2 °F - 41.0 °F 76% 30.46 in 10.0 mi West 6.9 mph - N/A   Overcast
3:53 PM 48.0 °F - 41.0 °F 77% 30.48 in 10.0 mi West 9.2 mph - N/A   Overcast
4:01 PM 46.4 °F 42.9 °F 41.0 °F 81% 30.46 in 10.0 mi West 6.9 mph - N/A   Overcast
4:53 PM 46.9 °F - 41.0 °F 80% 30.48 in 10.0 mi SW 5.8 mph - N/A   Overcast
5:01 PM 46.4 °F 42.4 °F 41.0 °F 81% 30.47 in 10.0 mi SW 8.1 mph - N/A   Overcast
5:53 PM 46.0 °F 43.1 °F 41.0 °F 83% 30.47 in 10.0 mi WSW 5.8 mph - N/A   Mostly Cloudy
6:53 PM 44.1 °F 42.5 °F 41.0 °F 89% 30.48 in 10.0 mi SW 3.5 mph - N/A   Scattered Clouds
7:53 PM 44.1 °F - 41.0 °F 89% 30.50 in 10.0 mi Calm Calm - N/A   Mostly Cloudy
8:53 PM 44.1 °F - 42.1 °F 93% 30.50 in 10.0 mi Calm Calm - N/A   Overcast
9:53 PM 43.0 °F - 41.0 °F 93% 30.50 in 10.0 mi Calm Calm - N/A   Overcast
10:53 PM 41.0 °F - 39.9 °F 96% 30.52 in 6.0 mi Calm Calm - N/A   Mostly Cloudy
11:20 PM 42.8 °F 41.1 °F 41.0 °F 93% 30.51 in 4.0 mi NE 3.5 mph - N/A   Overcast
11:35 PM 41.0 °F 38.0 °F 41.0 °F 100% 30.51 in 2.5 mi ENE 4.6 mph - N/A   Overcast
11:51 PM 42.8 °F 41.1 °F 39.2 °F 87% 30.51 in 4.0 mi ENE 3.5 mph - N/A   Overcast
11:53 PM 42.1 °F 40.2 °F 39.9 °F 92% 30.52 in 4.0 mi ENE 3.5 mph - N/A   Overcast